SCP
-0 0 0 0 0 0 0 0 0 0 0 0 0 0 0 0 0 0 0 0 0 0 0 0 -0 -0 -0 -0 -0 -0 -0 -0 -0 -0 -0 -0 -0 -0 -0 -0 -0 -0 0 -0 -0 0 0 0 0
-0 0 0 0 -0 0 0 0 0 0 0 0 0 0 0 0 0 0 0 0 0 0 0 0 -0 -0 -0 -0 -0 -0 -0 -0 -0 -0 -0 -0 -0 -0 -0 -0 -0 -0 0 -0 0 0 0 0 0
0 0 0 0 -0 -0 0 0 0 0 0 0 0 0 0 0 0 0 0 0 0 0 0 0 -0 -0 -0 -0 -0 -0 -0 -0 -0 -0 -0 -0 -0 -0 -0 -0 -0 -0 -0 -0 0 0 0 0 0
-0 0 0 -0 -0 0 0 0 0 0 0 0 0 0 0 0 0 0 0 0 0 0 0 0 0 0 -0 -0 -0 -0 -0 -0 -0 -0 -0 -0 -0 -0 -0 -0 -0 -0 -0 -0 0 0 0 0 0
0 0 0 0 -0 0 0 0 0 0 0 0 0 0 0 0 0 0 0 0 0 0 0 0 0 0 0 -0 -0 0 -0 -0 -0 -0 0 0 -0 -0 -0 -0 -0 0 -0 0 0 0 0 0 0
0 0 0 0 0 0 0 0 0 0 0 0 0 0 0 0 0 0 0 0 0 0 0 0 0 0 0 0 0 0 0 0 0 0 0 0 0 0 0 0 0 0 0 0 0 0 0 0 0
0 0 0 0 0 0 0 0 0 0 0 0 0 0 0 0 0 0 0 0 0 0 0 0 0 0 0 0 0 0 0 0 0 0 0 0 0 0 0 0 0 0 0 0 0 0 0 0 0
0 0 0 0 0 0 0 0 0 0 0 0 0 0 0 0 0 0 0 0 0 0 0 0 0 0 0 0 0 0 0 0 0 0 0 0 0 0 0 0 0 0 0 0 0 0 0 0 0
0 0 0 0 0 0 0 0 0 0 0 0 0 0 0 0 0 0 0 0 0 0 0 0 0 0 0 0 0 0 0 0 0 0 0 0 0 0 0 0 0 0 0 0 0 0 0 0 0
0 0 0 0 0 0 0 0 0 0 0 0 0 0 0 0 0 0 0 0 0 0 0 0 0 0 0 0 0 0 0 0 0 0 0 0 0 0 0 0 0 0 0 0 0 0 0 0 0
0 0 0 0 0 0 0 0 0 0 0 0 0 0 0 0 0 0 0 0 0 0 0 0 0 0 0 0 0 0 0 0 0 0 0 -0 0 0 0 0 0 0 0 0 0 0 0 0 0
0 0 0 0 0 0 0 0 0 0 0 0 0 0 0 0 0 0 0 0 0 0 0 0 0 0 0 0 0 0 0 0 0 0 0 -0 -0 -0 -0 -0 0 0 0 0 0 0 0 0 0
0 0 0 0 0 0 0 0 0 0 0 0 0 0 0 0 0 0 0 0 0 0 0 0 0 0 0 0 0 0 0 0 0 0 0 0 0 0 0 0 -0 0 0 0 0 0 0 0 0
0 0 0 0 0 0 0 0 0 0 0 0 0 0 0 0 0 0 0 0 0 0 0 0 0 0 0 0 0 0 0 -0 -0 -0 -0 -0 -0 -0 0 0 0 0 0 0 0 0 0 0 0
0 0 0 0 0 0 0 0 0 0 0 0 0 0 0 0 0 0 0 0 0 0 0 0 0 0 0 0 0 0 -0 -0 -0 -0 -0 -0 -0 -0 -0 -0 -0 0 0 0 0 0 0 0 0
0 0 0 0 0 0 0 0 0 0 0 0 0 0 0 0 0 0 0 0 0 0 0 0 0 0 0 0 0 0 -0 -0 -0 -0 0 0 0 0 0 0 -0 -0 -0 -0 0 0 0 0 0
0 0 0 0 0 0 0 0 0 0 0 0 0 0 0 0 0 0 0 0 0 0 0 0 0 0 0 0 0 0 0 -0 -0 0 0 0 0 0 0 0 0 0 0 -0 -0 -0 0 0 0
0 0 0 0 0 0 0 0 0 0 0 0 0 0 0 0 0 0 0 0 0 0 0 0 0 0 0 0 -0 -0 -0 -0 -0 0 0 0 0 0 0 0 0 0 0 0 0 0 0 -0 -0
0 0 0 0 0 0 0 0 0 0 0 0 0 0 0 0 0 0 0 0 0 0 0 0 0 0 0 0 -0 -0 -0 -0 -0 0 0 0 0 0 0 0 0 0 0 0 0 0 0 0 0
0 0 0 0 0 0 0 0 0 0 0 0 0 0 0 0 0 0 0 0 0 0 0 0 0 0 0 0 -0 -0 -0 -0 -0 -0 0 0 0 0 0 0 0 0 0 0 0 0 0 0 0
0 0 0 0 0 0 0 0 0 0 0 0 0 0 0 0 0 0 0 0 0 0 0 0 0 0 0 -0 -0 -0 -0 0 0 0 0 0 0 0 0 0 0 0 0 0 0 0 0 0 0
0 0 0 0 0 0 0 0 0 0 0 0 0 0 0 0 0 0 0 0 0 0 0 0 0 0 0 0 0 0 0 0 0 0 0 0 0 0 0 0 0 0 0 0 0 0 0 0 0
0 0 0 0 0 0 0 0 0 0 0 0 0 0 0 0 0 0 0 0 0 0 0 0 0 0 0 0 0 0 0 0 0 0 0 0 0 0 0 0 0 0 0 0 0 0 0 0 0
0 0 0 0 0 0 0 0 0 0 0 0 0 0 0 0 0 0 0 0 0 0 0 0 0 0 0 0 0 0 0 0 0 0 0 0 0 0 0 0 0 0 0 0 0 0 0 0 0
0 0 0 0 0 0 0 0 0 0 0 0 0 0 0 0 0 0 0 0 0 0 0 0 0 0 0 0 0 0 0 0 0 0 0 0 0 0 0 0 0 0 0 0 0 0 0 0 0
0 0 0 0 0 0 0 0 0 0 0 0 0 0 0 0 0 0 0 0 0 0 0 0 0 0 0 0 0 0 0 0 0 0 0 0 0 0 0 0 0 0 0 0 0 0 0 0 0
0 0 0 0 0 0 0 0 0 0 0 0 0 0 0 0 0 0 0 0 0 0 0 0 0 0 0 0 0 0 0 0 0 0 0 0 0 0 0 0 0 0 0 0 0 0 0 0 0
0 0 0 0 0 0 0 0 0 0 0 0 0 0 0 0 0 0 0 0 0 0 0 0 0 0 0 0 0 0 0 0 0 0 0 0 0 0 0 0 0 0 0 0 0 0 0 0 0
0 0 0 0 0 0 0 0 0 0 0 0 0 0 0 0 0 0 0 0 0 0 0 0 0 0 0 0 0 0 0 0 0 0 0 0 0 0 0 0 0 0 0 0 0 0 0 0 0
0 0 0 0 0 0 0 0 0 0 0 0 0 0 0 0 0 0 0 0 0 0 0 0 0 0 0 0 0 0 0 0 0 0 0 0 0 0 0 0 0 0 0 0 0 0 0 0 0
Wind_Speed_500mb
4 5 3 5 10 11 12 8 5 14 11 13 8 6 22 30 13 4 12 6 7 10 13 21 28 31 30 29 19 16 12 13 12 11 13 18 19 13 14 13 13 9 8 1 4 4 5 7 11
3 3 4 8 13 15 10 12 15 7 19 21 17 11 13 12 20 18 13 2 9 13 16 19 25 27 31 26 27 19 14 14 13 13 11 12 19 21 20 17 15 14 14 7 3 2 1 2 5
2 3 11 8 13 16 5 11 20 24 21 10 10 16 9 12 13 13 8 8 13 11 13 15 19 24 25 26 26 23 21 18 14 16 13 12 13 23 23 22 21 19 20 18 13 8 7 7 6
3 7 12 13 22 10 10 12 26 24 12 6 15 13 14 9 11 13 11 11 10 8 10 13 15 18 20 21 25 26 23 22 19 17 15 13 14 13 16 19 27 25 24 21 18 16 14 15 16
5 10 14 18 10 4 4 16 26 19 12 14 7 10 11 11 17 15 11 11 12 9 9 11 18 20 23 25 24 25 26 25 23 23 22 21 21 20 21 20 20 23 27 30 26 24 23 21 20
14 9 16 20 18 11 12 22 19 15 13 9 9 19 11 16 14 11 12 9 8 10 13 16 18 19 19 24 29 31 30 30 30 29 27 27 26 27 30 30 28 27 26 26 26 28 29 27 26
19 13 23 21 9 15 18 22 21 21 18 11 14 11 12 18 16 14 11 10 8 8 10 12 15 19 22 23 25 28 33 34 31 32 32 32 31 33 32 33 35 35 34 33 32 30 33 33 33
10 7 16 15 15 14 21 22 11 18 16 13 7 9 13 27 21 16 13 10 6 5 5 8 12 16 19 24 31 33 31 33 37 35 34 35 34 34 37 39 40 41 41 38 37 38 34 36 38
5 10 16 20 15 5 29 18 11 5 16 11 4 6 26 32 25 18 13 11 8 5 6 9 12 16 19 24 28 32 37 40 41 43 45 45 44 40 40 43 41 42 45 46 45 44 42 40 39
9 13 14 15 11 5 26 21 24 17 22 12 20 23 27 30 26 22 18 12 9 5 3 5 8 13 18 22 27 31 36 42 47 49 47 48 49 49 47 45 46 45 44 44 46 47 47 46 43
1 9 9 10 5 6 22 19 21 19 22 29 35 40 36 32 29 25 20 16 12 6 2 7 13 17 21 25 31 36 42 47 51 54 56 56 52 49 46 46 47 48 49 45 45 45 44 47 47
14 3 4 6 5 11 20 21 18 30 5 16 33 43 41 36 31 27 22 17 13 7 3 8 14 19 25 29 33 37 38 45 48 49 52 54 52 50 53 54 51 45 46 50 52 48 47 47 48
16 12 9 11 13 14 17 22 16 26 11 23 42 43 41 37 33 27 23 18 13 8 2 5 11 17 23 28 33 36 39 42 45 42 42 44 46 47 50 51 51 52 50 46 47 55 55 51 51
7 14 15 18 18 16 17 16 9 27 30 35 39 40 39 37 35 30 26 20 14 8 1 5 12 19 25 30 36 38 40 43 41 40 42 46 46 43 43 41 41 44 48 53 52 49 51 56 55
12 8 11 23 24 11 14 22 35 29 44 43 43 41 38 36 34 30 26 22 16 9 2 6 14 21 27 32 36 33 33 36 30 31 34 35 42 49 48 43 39 37 39 45 49 49 47 51 54
9 9 11 21 19 8 15 15 26 39 47 46 46 44 42 40 36 31 26 21 17 10 3 7 15 23 29 33 35 34 33 35 32 37 39 41 47 49 52 49 46 46 47 46 43 44 48 52 53
16 17 22 10 25 9 25 15 20 35 43 45 47 45 43 40 37 33 28 23 20 13 5 8 16 22 27 31 33 33 33 31 31 34 36 41 47 48 51 52 54 57 54 45 39 39 44 51 55
12 14 16 20 13 20 25 40 17 39 46 49 51 52 51 47 44 38 32 24 20 13 5 8 15 20 24 26 27 26 28 25 27 25 27 36 37 40 41 43 47 50 52 50 44 44 43 44 47
14 20 27 9 9 14 37 42 39 44 50 53 57 57 54 50 43 38 33 27 21 14 5 7 14 17 20 20 23 26 26 27 28 29 30 27 28 30 31 32 34 36 37 41 45 46 43 44 43
17 24 30 7 8 8 29 46 44 39 57 66 61 59 56 50 47 43 38 31 23 16 10 9 13 17 22 23 26 26 26 29 29 29 28 30 30 33 33 34 33 35 36 37 35 35 42 41 38
19 25 23 15 8 35 28 34 28 32 53 56 57 56 57 58 55 47 42 35 26 18 14 13 17 22 24 25 25 24 26 28 28 28 33 36 39 38 37 35 35 33 33 35 37 36 36 42 36
17 8 3 8 9 12 5 22 20 14 27 35 50 57 56 56 54 48 42 36 29 22 16 16 19 23 22 27 26 27 29 31 32 36 34 38 39 39 39 37 35 35 33 36 36 34 36 37 43
4 6 4 6 13 20 25 12 6 8 21 33 27 49 53 56 54 50 44 36 29 22 16 16 21 25 24 29 30 29 29 31 33 34 37 38 39 37 37 38 37 36 35 37 39 41 40 41 44
11 4 10 5 5 12 22 24 11 13 10 8 36 46 51 54 53 48 40 34 27 20 16 19 23 26 29 33 34 31 31 34 35 37 41 37 36 37 37 36 37 38 40 41 41 40 42 43 46
6 5 6 8 8 15 6 17 20 6 8 6 26 46 53 54 55 49 44 37 31 28 26 26 30 34 36 36 35 34 34 34 36 37 38 39 39 39 40 39 40 42 41 43 45 46 47 47 50
14 5 8 12 11 21 9 16 9 8 12 10 10 36 46 52 53 48 42 35 29 30 31 34 36 39 41 40 38 37 35 32 34 35 38 42 42 44 42 44 44 44 45 47 48 51 53 52 51
15 13 7 7 26 15 18 15 6 6 8 10 15 34 48 51 50 47 37 34 29 21 30 38 42 42 40 39 38 38 37 34 36 39 39 40 40 43 45 46 48 48 49 50 51 56 56 56 56
10 4 5 5 9 14 19 33 15 9 20 18 19 33 44 46 45 41 35 29 23 22 25 27 42 42 39 37 37 39 38 39 40 40 41 42 43 44 47 48 50 52 53 54 54 57 58 59 59
12 9 8 1 7 8 15 13 5 4 21 28 25 40 46 48 47 40 32 26 23 23 27 27 26 37 39 36 36 38 38 40 41 43 43 43 44 44 47 50 52 55 55 54 56 59 60 63 64
13 17 27 11 14 13 7 23 10 10 12 25 32 37 45 46 40 34 30 26 23 22 22 25 26 28 30 34 40 40 40 40 43 45 47 45 47 47 49 51 53 55 58 59 60 63 64 66 67
Wind_Direction_500mb
33 318 239 237 237 236 230 152 35 145 135 65 71 352 76 45 20 68 164 40 50 45 41 42 28 25 22 26 29 31 23 28 6 347 305 305 304 322 314 326 296 262 244 240 4 316 311 310 249
69 326 245 263 254 224 174 132 181 89 115 120 82 89 44 74 69 99 121 38 64 44 41 30 33 30 21 20 16 5 347 358 352 336 322 298 284 290 293 299 302 300 302 302 172 123 303 278 270
78 175 245 236 252 266 39 174 124 125 139 146 109 60 81 101 100 122 137 106 65 35 37 30 32 33 24 17 9 2 3 357 342 344 338 324 295 275 282 286 291 296 287 300 318 288 249 216 230
286 235 249 248 250 80 14 138 141 139 122 125 129 90 93 110 139 137 133 96 74 65 49 31 15 9 11 4 352 350 351 347 343 329 325 324 310 308 299 288 279 283 282 275 269 263 258 246 236
263 246 249 242 244 94 125 135 160 172 129 150 172 133 109 127 123 116 109 97 82 55 61 48 29 19 12 10 5 360 353 346 339 330 328 319 314 307 296 295 292 288 283 276 264 260 256 259 255
238 263 244 242 205 144 153 153 177 176 151 146 149 133 126 157 136 130 120 96 84 61 44 30 26 27 22 15 9 5 1 353 344 340 337 325 320 311 306 302 296 287 285 284 273 261 257 254 256
260 243 257 275 247 182 182 173 190 177 163 155 145 150 142 160 159 144 127 103 83 66 48 35 25 17 7 4 7 5 2 2 358 352 345 337 330 325 319 308 300 297 292 287 283 273 261 256 253
272 270 260 248 235 236 138 166 175 176 157 130 164 191 182 176 159 147 136 121 99 82 54 29 16 10 10 6 2 1 2 356 351 350 344 337 327 320 313 309 306 301 295 291 285 279 272 261 258
263 253 259 253 256 115 151 160 155 155 123 149 137 108 130 153 156 149 128 107 80 46 37 29 20 11 5 358 354 354 353 351 348 344 340 337 332 324 314 308 305 300 295 292 288 282 278 267 261
256 256 317 25 31 186 175 200 166 163 158 158 147 144 150 151 154 154 156 143 124 104 74 36 16 8 4 1 356 354 352 351 350 347 343 338 334 329 323 315 307 303 296 293 289 285 281 276 271
199 279 21 30 19 184 170 190 176 195 205 199 185 171 164 161 161 160 158 158 161 154 75 15 10 8 5 0 359 355 352 351 349 346 343 343 339 332 327 322 316 310 304 300 292 289 282 277 275
237 194 270 157 131 161 177 170 205 213 164 172 182 171 166 167 167 167 163 164 164 158 87 24 13 7 3 2 359 355 351 349 347 345 341 341 341 339 336 332 326 318 311 307 303 297 290 286 279
229 178 178 173 168 181 167 201 226 221 190 168 163 170 172 172 171 170 166 162 164 161 118 12 1 358 357 355 353 350 347 345 342 341 337 334 333 331 331 331 332 329 321 314 306 303 300 290 284
156 184 177 181 182 188 205 206 205 197 172 166 172 178 179 178 175 172 171 168 168 169 163 5 360 356 352 350 351 350 349 346 343 340 337 338 337 334 329 325 320 321 322 322 317 309 302 299 292
153 183 219 213 197 196 213 234 227 190 176 178 183 184 185 186 184 182 176 171 166 180 190 350 350 349 350 350 350 350 345 343 338 332 332 332 332 332 331 328 326 321 311 311 317 317 308 298 294
231 260 244 155 181 172 198 263 175 167 178 188 191 190 191 191 189 187 181 177 177 175 217 323 341 344 345 344 344 343 340 338 331 326 325 322 320 323 322 321 322 321 323 322 317 313 312 310 302
212 268 219 191 200 162 214 271 145 179 192 198 199 198 198 195 192 190 187 183 189 197 236 322 336 338 339 338 337 337 333 333 324 321 315 310 310 310 311 313 314 314 316 318 321 316 313 307 305
311 246 258 261 173 227 231 251 186 192 202 210 205 202 200 199 198 192 190 186 195 202 237 328 332 332 332 336 331 327 325 322 317 316 313 310 313 311 307 302 301 305 308 311 310 312 310 308 308
282 273 271 256 158 226 238 250 255 201 210 215 212 206 203 202 198 195 191 191 193 204 229 302 319 318 326 325 325 321 318 316 316 310 312 313 309 306 305 305 305 306 304 303 307 310 312 311 311
260 272 273 243 143 242 274 268 258 228 210 210 212 208 204 200 196 193 193 193 194 198 223 284 305 314 319 322 318 315 311 309 310 310 308 306 308 306 307 300 300 299 299 300 302 304 303 304 311
241 252 274 278 296 237 278 274 237 234 221 208 213 213 204 199 196 197 196 194 193 202 220 270 301 313 317 317 317 313 311 310 308 305 307 307 306 304 303 297 296 293 292 294 296 296 295 298 301
266 38 303 279 297 288 236 292 253 180 212 195 202 208 201 199 198 197 197 196 199 201 234 280 299 310 315 316 314 312 311 306 303 307 304 304 305 301 297 296 295 293 294 289 287 287 286 290 293
16 21 333 280 268 311 212 245 245 175 220 213 204 202 199 196 195 195 195 197 198 208 229 266 298 312 313 314 311 307 300 298 301 301 301 300 297 296 297 296 295 293 292 288 286 286 285 283 282
112 251 230 253 271 250 234 210 275 193 206 159 187 199 194 192 194 193 194 196 201 213 246 276 296 303 307 309 303 298 296 297 298 299 297 297 296 296 294 294 292 290 289 288 286 284 280 278 277
212 256 300 245 207 253 90 225 260 178 161 145 181 191 191 189 191 191 193 200 207 219 253 279 293 300 306 303 298 297 294 295 294 293 293 296 297 296 294 293 291 289 287 284 282 281 278 275 273
193 284 235 279 284 317 139 244 254 58 76 100 145 183 185 189 191 193 199 207 223 251 266 282 291 302 304 299 297 296 294 290 289 290 291 291 291 292 293 292 292 290 287 284 281 279 277 276 273
147 196 121 295 270 284 243 232 149 128 153 174 166 183 188 192 194 196 199 210 218 235 274 286 295 300 298 295 295 295 294 291 289 292 291 291 291 291 291 290 290 289 285 282 279 276 276 271 268
254 21 168 168 249 248 257 280 252 189 202 185 183 191 187 190 190 194 201 208 222 248 265 281 293 297 296 294 296 298 296 295 296 295 295 293 292 291 291 290 288 286 283 280 279 276 274 273 270
175 219 207 238 239 264 297 261 207 191 191 189 189 187 183 184 186 193 198 208 227 247 267 281 280 290 292 294 297 296 296 298 300 299 300 298 295 294 291 288 286 286 285 283 277 275 272 270 269
278 231 192 199 196 223 274 266 174 176 193 184 185 179 180 181 186 191 197 209 230 248 266 276 280 278 286 297 299 299 299 303 304 306 304 301 298 298 296 294 291 288 286 285 280 278 275 271 269
Wind_Speed_850mb
4 5 3 5 10 11 12 8 5 14 11 13 8 6 22 30 13 4 12 6 7 10 13 21 28 31 30 29 19 16 12 13 12 11 13 18 19 13 14 13 13 9 8 1 4 4 5 7 11
3 3 4 8 13 15 10 12 15 7 19 21 17 11 13 12 20 18 13 2 9 13 16 19 25 27 31 26 27 19 14 14 13 13 11 12 19 21 20 17 15 14 14 7 3 2 1 2 5
2 3 11 8 13 16 5 11 20 24 21 10 10 16 9 12 13 13 8 8 13 11 13 15 19 24 25 26 26 23 21 18 14 16 13 12 13 23 23 22 21 19 20 18 13 8 7 7 6
3 7 12 13 22 10 10 12 26 24 12 6 15 13 14 9 11 13 11 11 10 8 10 13 15 18 20 21 25 26 23 22 19 17 15 13 14 13 16 19 27 25 24 21 18 16 14 15 16
5 10 14 18 10 4 4 16 26 19 12 14 7 10 11 11 17 15 11 11 12 9 9 11 18 20 23 25 24 25 26 25 23 23 22 21 21 20 21 20 20 23 27 30 26 24 23 21 20
14 9 16 20 18 11 12 22 19 15 13 9 9 19 11 16 14 11 12 9 8 10 13 16 18 19 19 24 29 31 30 30 30 29 27 27 26 27 30 30 28 27 26 26 26 28 29 27 26
19 13 23 21 9 15 18 22 21 21 18 11 14 11 12 18 16 14 11 10 8 8 10 12 15 19 22 23 25 28 33 34 31 32 32 32 31 33 32 33 35 35 34 33 32 30 33 33 33
10 7 16 15 15 14 21 22 11 18 16 13 7 9 13 27 21 16 13 10 6 5 5 8 12 16 19 24 31 33 31 33 37 35 34 35 34 34 37 39 40 41 41 38 37 38 34 36 38
5 10 16 20 15 5 29 18 11 5 16 11 4 6 26 32 25 18 13 11 8 5 6 9 12 16 19 24 28 32 37 40 41 43 45 45 44 40 40 43 41 42 45 46 45 44 42 40 39
9 13 14 15 11 5 26 21 24 17 22 12 20 23 27 30 26 22 18 12 9 5 3 5 8 13 18 22 27 31 36 42 47 49 47 48 49 49 47 45 46 45 44 44 46 47 47 46 43
1 9 9 10 5 6 22 19 21 19 22 29 35 40 36 32 29 25 20 16 12 6 2 7 13 17 21 25 31 36 42 47 51 54 56 56 52 49 46 46 47 48 49 45 45 45 44 47 47
14 3 4 6 5 11 20 21 18 30 5 16 33 43 41 36 31 27 22 17 13 7 3 8 14 19 25 29 33 37 38 45 48 49 52 54 52 50 53 54 51 45 46 50 52 48 47 47 48
16 12 9 11 13 14 17 22 16 26 11 23 42 43 41 37 33 27 23 18 13 8 2 5 11 17 23 28 33 36 39 42 45 42 42 44 46 47 50 51 51 52 50 46 47 55 55 51 51
7 14 15 18 18 16 17 16 9 27 30 35 39 40 39 37 35 30 26 20 14 8 1 5 12 19 25 30 36 38 40 43 41 40 42 46 46 43 43 41 41 44 48 53 52 49 51 56 55
12 8 11 23 24 11 14 22 35 29 44 43 43 41 38 36 34 30 26 22 16 9 2 6 14 21 27 32 36 33 33 36 30 31 34 35 42 49 48 43 39 37 39 45 49 49 47 51 54
9 9 11 21 19 8 15 15 26 39 47 46 46 44 42 40 36 31 26 21 17 10 3 7 15 23 29 33 35 34 33 35 32 37 39 41 47 49 52 49 46 46 47 46 43 44 48 52 53
16 17 22 10 25 9 25 15 20 35 43 45 47 45 43 40 37 33 28 23 20 13 5 8 16 22 27 31 33 33 33 31 31 34 36 41 47 48 51 52 54 57 54 45 39 39 44 51 55
12 14 16 20 13 20 25 40 17 39 46 49 51 52 51 47 44 38 32 24 20 13 5 8 15 20 24 26 27 26 28 25 27 25 27 36 37 40 41 43 47 50 52 50 44 44 43 44 47
14 20 27 9 9 14 37 42 39 44 50 53 57 57 54 50 43 38 33 27 21 14 5 7 14 17 20 20 23 26 26 27 28 29 30 27 28 30 31 32 34 36 37 41 45 46 43 44 43
17 24 30 7 8 8 29 46 44 39 57 66 61 59 56 50 47 43 38 31 23 16 10 9 13 17 22 23 26 26 26 29 29 29 28 30 30 33 33 34 33 35 36 37 35 35 42 41 38
19 25 23 15 8 35 28 34 28 32 53 56 57 56 57 58 55 47 42 35 26 18 14 13 17 22 24 25 25 24 26 28 28 28 33 36 39 38 37 35 35 33 33 35 37 36 36 42 36
17 8 3 8 9 12 5 22 20 14 27 35 50 57 56 56 54 48 42 36 29 22 16 16 19 23 22 27 26 27 29 31 32 36 34 38 39 39 39 37 35 35 33 36 36 34 36 37 43
4 6 4 6 13 20 25 12 6 8 21 33 27 49 53 56 54 50 44 36 29 22 16 16 21 25 24 29 30 29 29 31 33 34 37 38 39 37 37 38 37 36 35 37 39 41 40 41 44
11 4 10 5 5 12 22 24 11 13 10 8 36 46 51 54 53 48 40 34 27 20 16 19 23 26 29 33 34 31 31 34 35 37 41 37 36 37 37 36 37 38 40 41 41 40 42 43 46
6 5 6 8 8 15 6 17 20 6 8 6 26 46 53 54 55 49 44 37 31 28 26 26 30 34 36 36 35 34 34 34 36 37 38 39 39 39 40 39 40 42 41 43 45 46 47 47 50
14 5 8 12 11 21 9 16 9 8 12 10 10 36 46 52 53 48 42 35 29 30 31 34 36 39 41 40 38 37 35 32 34 35 38 42 42 44 42 44 44 44 45 47 48 51 53 52 51
15 13 7 7 26 15 18 15 6 6 8 10 15 34 48 51 50 47 37 34 29 21 30 38 42 42 40 39 38 38 37 34 36 39 39 40 40 43 45 46 48 48 49 50 51 56 56 56 56
10 4 5 5 9 14 19 33 15 9 20 18 19 33 44 46 45 41 35 29 23 22 25 27 42 42 39 37 37 39 38 39 40 40 41 42 43 44 47 48 50 52 53 54 54 57 58 59 59
12 9 8 1 7 8 15 13 5 4 21 28 25 40 46 48 47 40 32 26 23 23 27 27 26 37 39 36 36 38 38 40 41 43 43 43 44 44 47 50 52 55 55 54 56 59 60 63 64
13 17 27 11 14 13 7 23 10 10 12 25 32 37 45 46 40 34 30 26 23 22 22 25 26 28 30 34 40 40 40 40 43 45 47 45 47 47 49 51 53 55 58 59 60 63 64 66 67
Wind_Direction_850mb
33 318 239 237 237 236 230 152 35 145 135 65 71 352 76 45 20 68 164 40 50 45 41 42 28 25 22 26 29 31 23 28 6 347 305 305 304 322 314 326 296 262 244 240 4 316 311 310 249
69 326 245 263 254 224 174 132 181 89 115 120 82 89 44 74 69 99 121 38 64 44 41 30 33 30 21 20 16 5 347 358 352 336 322 298 284 290 293 299 302 300 302 302 172 123 303 278 270
78 175 245 236 252 266 39 174 124 125 139 146 109 60 81 101 100 122 137 106 65 35 37 30 32 33 24 17 9 2 3 357 342 344 338 324 295 275 282 286 291 296 287 300 318 288 249 216 230
286 235 249 248 250 80 14 138 141 139 122 125 129 90 93 110 139 137 133 96 74 65 49 31 15 9 11 4 352 350 351 347 343 329 325 324 310 308 299 288 279 283 282 275 269 263 258 246 236
263 246 249 242 244 94 125 135 160 172 129 150 172 133 109 127 123 116 109 97 82 55 61 48 29 19 12 10 5 360 353 346 339 330 328 319 314 307 296 295 292 288 283 276 264 260 256 259 255
238 263 244 242 205 144 153 153 177 176 151 146 149 133 126 157 136 130 120 96 84 61 44 30 26 27 22 15 9 5 1 353 344 340 337 325 320 311 306 302 296 287 285 284 273 261 257 254 256
260 243 257 275 247 182 182 173 190 177 163 155 145 150 142 160 159 144 127 103 83 66 48 35 25 17 7 4 7 5 2 2 358 352 345 337 330 325 319 308 300 297 292 287 283 273 261 256 253
272 270 260 248 235 236 138 166 175 176 157 130 164 191 182 176 159 147 136 121 99 82 54 29 16 10 10 6 2 1 2 356 351 350 344 337 327 320 313 309 306 301 295 291 285 279 272 261 258
263 253 259 253 256 115 151 160 155 155 123 149 137 108 130 153 156 149 128 107 80 46 37 29 20 11 5 358 354 354 353 351 348 344 340 337 332 324 314 308 305 300 295 292 288 282 278 267 261
256 256 317 25 31 186 175 200 166 163 158 158 147 144 150 151 154 154 156 143 124 104 74 36 16 8 4 1 356 354 352 351 350 347 343 338 334 329 323 315 307 303 296 293 289 285 281 276 271
199 279 21 30 19 184 170 190 176 195 205 199 185 171 164 161 161 160 158 158 161 154 75 15 10 8 5 0 359 355 352 351 349 346 343 343 339 332 327 322 316 310 304 300 292 289 282 277 275
237 194 270 157 131 161 177 170 205 213 164 172 182 171 166 167 167 167 163 164 164 158 87 24 13 7 3 2 359 355 351 349 347 345 341 341 341 339 336 332 326 318 311 307 303 297 290 286 279
229 178 178 173 168 181 167 201 226 221 190 168 163 170 172 172 171 170 166 162 164 161 118 12 1 358 357 355 353 350 347 345 342 341 337 334 333 331 331 331 332 329 321 314 306 303 300 290 284
156 184 177 181 182 188 205 206 205 197 172 166 172 178 179 178 175 172 171 168 168 169 163 5 360 356 352 350 351 350 349 346 343 340 337 338 337 334 329 325 320 321 322 322 317 309 302 299 292
153 183 219 213 197 196 213 234 227 190 176 178 183 184 185 186 184 182 176 171 166 180 190 350 350 349 350 350 350 350 345 343 338 332 332 332 332 332 331 328 326 321 311 311 317 317 308 298 294
231 260 244 155 181 172 198 263 175 167 178 188 191 190 191 191 189 187 181 177 177 175 217 323 341 344 345 344 344 343 340 338 331 326 325 322 320 323 322 321 322 321 323 322 317 313 312 310 302
212 268 219 191 200 162 214 271 145 179 192 198 199 198 198 195 192 190 187 183 189 197 236 322 336 338 339 338 337 337 333 333 324 321 315 310 310 310 311 313 314 314 316 318 321 316 313 307 305
311 246 258 261 173 227 231 251 186 192 202 210 205 202 200 199 198 192 190 186 195 202 237 328 332 332 332 336 331 327 325 322 317 316 313 310 313 311 307 302 301 305 308 311 310 312 310 308 308
282 273 271 256 158 226 238 250 255 201 210 215 212 206 203 202 198 195 191 191 193 204 229 302 319 318 326 325 325 321 318 316 316 310 312 313 309 306 305 305 305 306 304 303 307 310 312 311 311
260 272 273 243 143 242 274 268 258 228 210 210 212 208 204 200 196 193 193 193 194 198 223 284 305 314 319 322 318 315 311 309 310 310 308 306 308 306 307 300 300 299 299 300 302 304 303 304 311
241 252 274 278 296 237 278 274 237 234 221 208 213 213 204 199 196 197 196 194 193 202 220 270 301 313 317 317 317 313 311 310 308 305 307 307 306 304 303 297 296 293 292 294 296 296 295 298 301
266 38 303 279 297 288 236 292 253 180 212 195 202 208 201 199 198 197 197 196 199 201 234 280 299 310 315 316 314 312 311 306 303 307 304 304 305 301 297 296 295 293 294 289 287 287 286 290 293
16 21 333 280 268 311 212 245 245 175 220 213 204 202 199 196 195 195 195 197 198 208 229 266 298 312 313 314 311 307 300 298 301 301 301 300 297 296 297 296 295 293 292 288 286 286 285 283 282
112 251 230 253 271 250 234 210 275 193 206 159 187 199 194 192 194 193 194 196 201 213 246 276 296 303 307 309 303 298 296 297 298 299 297 297 296 296 294 294 292 290 289 288 286 284 280 278 277
212 256 300 245 207 253 90 225 260 178 161 145 181 191 191 189 191 191 193 200 207 219 253 279 293 300 306 303 298 297 294 295 294 293 293 296 297 296 294 293 291 289 287 284 282 281 278 275 273
193 284 235 279 284 317 139 244 254 58 76 100 145 183 185 189 191 193 199 207 223 251 266 282 291 302 304 299 297 296 294 290 289 290 291 291 291 292 293 292 292 290 287 284 281 279 277 276 273
147 196 121 295 270 284 243 232 149 128 153 174 166 183 188 192 194 196 199 210 218 235 274 286 295 300 298 295 295 295 294 291 289 292 291 291 291 291 291 290 290 289 285 282 279 276 276 271 268
254 21 168 168 249 248 257 280 252 189 202 185 183 191 187 190 190 194 201 208 222 248 265 281 293 297 296 294 296 298 296 295 296 295 295 293 292 291 291 290 288 286 283 280 279 276 274 273 270
175 219 207 238 239 264 297 261 207 191 191 189 189 187 183 184 186 193 198 208 227 247 267 281 280 290 292 294 297 296 296 298 300 299 300 298 295 294 291 288 286 286 285 283 277 275 272 270 269
278 231 192 199 196 223 274 266 174 176 193 184 185 179 180 181 186 191 197 209 230 248 266 276 280 278 286 297 299 299 299 303 304 306 304 301 298 298 296 294 291 288 286 285 280 278 275 271 269